Wetterstats.de || Aktuelle Messwerte || Aktuelle Wetterkarten NEU! || Radar / Satellit NEU! || Wetterarchiv || Langzeitwerte NEU! || Klim. Kenntage || Met. Ereignisse || Agrarwerte || Echtzeitwerte

Monatsübersicht für November 2020 Diagramm
 
Wetter Information zur Wetteranzeige
Zeitraffer
Tageslänge (hh:mm)
Höchsttemperatur in °C
Uhrzeit
Tiefsttemperatur in °C
Uhrzeit
Luftfeuchte (max., in %)
Uhrzeit
Luftfeuchte (min., in %)
Uhrzeit
Luftdruck (max., in hPa)
Uhrzeit
Luftdruck (min., in hPa)
Uhrzeit
Luftdruck (Ø, in hPa)
Regenrate (max, mm/h)
Uhrzeit
Niederschlag in mm
Verdunstung in mm
Solar in W/m² (Ø)
Solar in W/m² (max.)
UV-Index (max.)
Sonnenscheindauer (hh:mm)
Windrichtung (Ø)
Windstärke (Ø in km/h)
Windstärke (Ø in bft)
Windböe (max., in km/h)
Uhrzeit
Windböe (max., in bft)
Uhrzeit
Taupunkt (max., in °C)
Uhrzeit
Taupunkt (min., in °C)
Uhrzeit
Windchill (min., in °C)
Uhrzeit
Gewitterindex (max.)
Uhrzeit
Waldbrandindex (max.)
Uhrzeit
Graslandfeuerindex (max.)
Uhrzeit
Staubsturm-Index (max.)
Uhrzeit
01
Zeitraffer
09:37
13.6
14:30 Uhr
9.4
06:55 Uhr

94
00:00 Uhr
93
14:30 Uhr
1018.4
00:00 Uhr

1011.9
22:00 Uhr
1015.1
2,400
04:20 Uhr
0,400
0.305
57
183
13:55 Uhr
0.6
12:35 Uhr

00:10:00
1,6
0
16,1
04:35 Uhr

3
12.6
14:25 Uhr
8.5
06:55 Uhr
9.4
06:55 Uhr
4
00:05 Uhr

00:00 Uhr

00:00 Uhr

00:00 Uhr
02
Zeitraffer
09:33
18.3
15:15 Uhr
13.2
00:05 Uhr

94
01:40 Uhr
88
23:10 Uhr
1012.7
23:00 Uhr

1010.1
15:00 Uhr
1011.2
6,000
09:15 Uhr
4,400
0.406
76
208
13:35 Uhr
0.8
11:50 Uhr

00:10:00
2,1
1
20,9
11:45 Uhr

4
17.0
14:55 Uhr
12.1
00:05 Uhr
13.2
00:05 Uhr
10
17:10 Uhr

00:00 Uhr

00:00 Uhr

00:00 Uhr
03
Zeitraffer
09:29
16.2
00:00 Uhr
8.6
19:55 Uhr

92
20:50 Uhr
71
12:10 Uhr
1023.7
23:15 Uhr

1013.0
00:00 Uhr
1020.8
0,000
00:00 Uhr
0,000
0.762
115
361
12:25 Uhr
0.9
10:40 Uhr

02:20:00
1,8
0
24,1
01:20 Uhr

4
14.4
00:00 Uhr
6.9
17:35 Uhr
8.6
19:55 Uhr
8
00:05 Uhr

00:00 Uhr

00:00 Uhr

00:00 Uhr
04
Kein Zeitraffer vorhanden
09:25
11.4
12:30 Uhr
2.2
23:35 Uhr

92
23:40 Uhr
70
12:35 Uhr
1035.2
23:30 Uhr

1023.7
00:00 Uhr
1029.5
0,000
00:00 Uhr
0,000
0.686
134
450
12:30 Uhr
0.9
11:10 Uhr

01:50:00
1,8
0
22,5
09:55 Uhr

4
8.0
00:45 Uhr
0.9
23:35 Uhr
2.2
23:35 Uhr
0
00:00 Uhr

00:00 Uhr

00:00 Uhr

00:00 Uhr
05
Zeitraffer
09:21
10.4
14:30 Uhr
0.2
06:25 Uhr

94
07:50 Uhr
79
14:35 Uhr
1037.4
08:45 Uhr

1034.2
23:45 Uhr
1035.8
2,400
08:45 Uhr
0,200
0.584
136
362
12:20 Uhr
0.8
10:40 Uhr

03:51:00
1,5
0
22,5
12:10 Uhr

4
7.3
13:20 Uhr
-0.8
06:25 Uhr
0.2
06:25 Uhr
0
00:00 Uhr

00:00 Uhr

00:00 Uhr

00:00 Uhr
06
Zeitraffer
09:19
9.7
13:20 Uhr
7.8
03:00 Uhr

92
23:00 Uhr
87
00:00 Uhr
1034.3
10:45 Uhr

1032.7
23:30 Uhr
1033.6
0,000
00:00 Uhr
0,000
0.178
39
95
10:35 Uhr
0.0
00:00 Uhr

00:00:00
1,8
0
17,7
00:00 Uhr

3
8.1
11:50 Uhr
5.9
01:30 Uhr
7.8
03:00 Uhr
0
00:00 Uhr

00:00 Uhr

00:00 Uhr

00:00 Uhr
07
Zeitraffer
09:15
13.3
13:40 Uhr
3.2
22:00 Uhr

93
03:20 Uhr
64
13:05 Uhr
1032.7
00:00 Uhr

1024.8
23:45 Uhr
1028.6
0,000
00:00 Uhr
0,000
0.686
148
313
12:00 Uhr
0.9
11:30 Uhr

04:35:00
1,1
0
14,5
04:55 Uhr

3
7.4
14:45 Uhr
2.1
22:15 Uhr
3.2
22:00 Uhr
0
00:00 Uhr

00:00 Uhr

00:00 Uhr

00:00 Uhr
08
Zeitraffer
09:11
8.7
13:00 Uhr
-0.3
07:50 Uhr

94
08:20 Uhr
87
13:00 Uhr
1027.5
21:30 Uhr

1024.2
03:00 Uhr
1025.8
0,000
00:00 Uhr
0,000
0.483
131
266
12:05 Uhr
0.8
11:50 Uhr

03:45:00
0,6
0
14,5
19:55 Uhr

3
6.7
12:55 Uhr
-1.3
07:50 Uhr
-0.3
07:50 Uhr
0
00:00 Uhr

00:00 Uhr

00:00 Uhr

00:00 Uhr
09
Zeitraffer
09:08
6.7
13:40 Uhr
5.2
23:20 Uhr

94
00:00 Uhr
92
13:50 Uhr
1029.4
23:45 Uhr

1027.2
04:45 Uhr
1028.2
0,000
00:00 Uhr
0,000
0.102
27
62
11:10 Uhr
0.0
00:00 Uhr

00:00:00
2,1
1
17,7
23:45 Uhr

3
5.7
13:45 Uhr
4.2
23:00 Uhr
5.2
23:20 Uhr
0
00:00 Uhr

00:00 Uhr

00:00 Uhr

00:00 Uhr
10
Zeitraffer
09:04
5.6
15:40 Uhr
4.6
10:20 Uhr

94
06:20 Uhr
93
00:00 Uhr
1030.6
10:30 Uhr

1029.0
03:30 Uhr
1029.8
2,400
18:45 Uhr
0,200
0.076
17
32
10:50 Uhr
0.0
00:00 Uhr

00:00:00
2,5
1
17,7
00:40 Uhr

3
4.6
23:45 Uhr
3.5
10:50 Uhr
4.6
10:20 Uhr
0
00:00 Uhr

00:00 Uhr

00:00 Uhr

00:00 Uhr
11
Kein Zeitraffer vorhanden
09:01
6.3
12:20 Uhr
5.1
04:50 Uhr

94
00:05 Uhr
92
15:25 Uhr
1029.7
00:00 Uhr

1024.1
23:15 Uhr
1027.0
0,000
00:00 Uhr
0,000
0.025
20
60
11:45 Uhr
0.0
00:00 Uhr

00:00:00
0,5
0
6,4
00:05 Uhr

1
5.3
11:50 Uhr
4.2
04:50 Uhr
5.1
04:50 Uhr
0
00:00 Uhr

00:00 Uhr

00:00 Uhr

00:00 Uhr
12
Zeitraffer
08:58
9.1
14:10 Uhr
4.9
18:30 Uhr

93
00:10 Uhr
79
14:05 Uhr
1024.0
00:00 Uhr

1020.2
14:45 Uhr
1021.4
2,400
12:25 Uhr
0,200
0.279
50
113
14:15 Uhr
0.0
00:00 Uhr

00:00:00
1,7
0
20,9
10:35 Uhr

4
5.7
14:00 Uhr
2.6
18:30 Uhr
4.9
18:30 Uhr
0
00:00 Uhr

00:00 Uhr

00:00 Uhr

00:00 Uhr
13
Zeitraffer
08:54
11.4
11:50 Uhr
5.3
03:25 Uhr

94
08:05 Uhr
79
13:55 Uhr
1020.9
08:45 Uhr

1018.1
20:00 Uhr
1019.7
0,000
00:00 Uhr
0,000
0.508
119
399
11:45 Uhr
0.6
10:50 Uhr

02:45:00
0,9
0
17,7
11:35 Uhr

3
8.2
11:50 Uhr
3.8
17:50 Uhr
5.3
03:25 Uhr
0
00:00 Uhr

00:00 Uhr

00:00 Uhr

00:00 Uhr
14
Kein Zeitraffer vorhanden
08:51
14.8
13:50 Uhr
6.3
00:00 Uhr

93
00:05 Uhr
82
13:50 Uhr
1019.2
08:45 Uhr

1017.4
23:45 Uhr
1018.5
0,000
00:00 Uhr
0,000
0.483
93
266
10:15 Uhr
0.0
00:00 Uhr

00:55:00
0,9
0
19,3
12:25 Uhr

3
11.8
13:45 Uhr
5.1
00:00 Uhr
6.3
00:00 Uhr
2
10:15 Uhr

00:00 Uhr

00:00 Uhr

00:00 Uhr
15
Kein Zeitraffer vorhanden
08:47
14.6
13:25 Uhr
6.5
23:30 Uhr

93
01:05 Uhr
68
12:40 Uhr
1017.4
00:00 Uhr

1010.0
23:45 Uhr
1014.2
0,000
00:00 Uhr
0,000
0.686
108
273
11:50 Uhr
0.6
11:25 Uhr

02:45:00
3,8
1
27,4
19:10 Uhr

4
8.9
13:20 Uhr
4.7
22:00 Uhr
5.3
19:10 Uhr
0
00:00 Uhr

00:00 Uhr

00:00 Uhr

00:00 Uhr


 
Wetter Information zur Wetteranzeige
Zeitraffer
Tageslänge (hh:mm)
Höchsttemperatur in °C
Uhrzeit
Tiefsttemperatur in °C
Uhrzeit
Luftfeuchte (max., in %)
Uhrzeit
Luftfeuchte (min., in %)
Uhrzeit
Luftdruck (max., in hPa)
Uhrzeit
Luftdruck (min., in hPa)
Uhrzeit
Luftdruck (Ø, in hPa)
Regenrate (max, mm/h)
Uhrzeit
Niederschlag in mm
Verdunstung in mm
Solar in W/m² (Ø)
Solar in W/m² (max.)
UV-Index (max.)
Sonnenscheindauer (hh:mm)
Windrichtung (Ø)
Windstärke (Ø in km/h)
Windstärke (Ø in bft)
Windböe (max., in km/h)
Uhrzeit
Windböe (max., in bft)
Uhrzeit
Taupunkt (max., in °C)
Uhrzeit
Taupunkt (min., in °C)
Uhrzeit
Windchill (min., in °C)
Uhrzeit
Gewitterindex (max.)
Uhrzeit
Waldbrandindex (max.)
Uhrzeit
Graslandfeuerindex (max.)
Uhrzeit
Staubsturm-Index (max.)
Uhrzeit
16
Zeitraffer
08:45
11.7
14:10 Uhr
6.5
00:20 Uhr

93
08:10 Uhr
79
14:20 Uhr
1020.0
23:45 Uhr

1008.6
02:45 Uhr
1013.3
2,400
05:05 Uhr
1,200
0.356
69
322
11:55 Uhr
0.6
11:55 Uhr

01:00:00
1,9
0
24,1
14:20 Uhr

4
9.9
12:46 Uhr
4.7
00:00 Uhr
6.5
00:20 Uhr
0
00:00 Uhr

00:00 Uhr

00:00 Uhr

00:00 Uhr
17
Zeitraffer
08:42
11.8
13:20 Uhr
8.3
08:30 Uhr

94
21:15 Uhr
79
12:35 Uhr
1025.7
23:45 Uhr

1020.1
00:00 Uhr
1023.2
2,400
05:25 Uhr
1,600
0.356
76
232
10:00 Uhr
0.6
11:40 Uhr

00:35:00
2,2
1
25,7
14:20 Uhr

4
9.2
21:20 Uhr
7.1
08:30 Uhr
8.3
08:30 Uhr
2
16:45 Uhr

00:00 Uhr

00:00 Uhr

00:00 Uhr
18
Zeitraffer
08:38
12.4
12:20 Uhr
6.3
19:46 Uhr

94
00:00 Uhr
76
13:10 Uhr
1026.8
09:30 Uhr

1017.5
23:45 Uhr
1024.1
0,000
00:00 Uhr
0,000
0.356
63
199
11:35 Uhr
0.6
11:15 Uhr

00:05:00
1,5
0
19,3
23:55 Uhr

3
9.8
11:25 Uhr
4.2
19:30 Uhr
6.3
19:46 Uhr
2
00:05 Uhr

00:00 Uhr

00:00 Uhr

00:00 Uhr
19
Zeitraffer
08:35
11.2
13:50 Uhr
3.7
23:55 Uhr

92
23:25 Uhr
68
14:45 Uhr
1023.3
23:45 Uhr

1013.3
06:00 Uhr
1016.2
8,400
18:15 Uhr
1,700
0.610
45
206
13:50 Uhr
0.0
00:00 Uhr

00:25:00
4,9
1
37,0
14:45 Uhr

5
8.7
11:30 Uhr
2.5
23:55 Uhr
3.7
23:55 Uhr
0
00:00 Uhr

00:00 Uhr

00:00 Uhr

00:00 Uhr
20
Kein Zeitraffer vorhanden
08:33
6.3
13:25 Uhr
-1.9
22:45 Uhr

93
09:40 Uhr
76
13:40 Uhr
1034.9
23:00 Uhr

1023.7
00:00 Uhr
1029.6
0,000
00:00 Uhr
0,000
0.381
112
269
12:10 Uhr
0.0
00:00 Uhr

03:15:00
2,3
1
22,5
12:20 Uhr

4
3.3
13:05 Uhr
-3.2
22:45 Uhr
-1.9
22:45 Uhr
0
00:00 Uhr

00:00 Uhr

00:00 Uhr

00:00 Uhr
21
Kein Zeitraffer vorhanden
08:30
6.2
13:35 Uhr
-1.8
00:00 Uhr

94
06:10 Uhr
69
13:55 Uhr
1034.9
01:00 Uhr

1024.9
23:45 Uhr
1030.9
2,400
09:15 Uhr
0,200
0.610
101
274
11:25 Uhr
0.6
10:50 Uhr

02:35:00
3,6
1
33,8
16:55 Uhr

5
3.3
11:15 Uhr
-2.9
00:00 Uhr
-1.8
00:00 Uhr
0
00:00 Uhr

00:00 Uhr

00:00 Uhr

00:00 Uhr
22
Zeitraffer
08:27
8.8
13:50 Uhr
5.6
03:25 Uhr

92
20:40 Uhr
71
00:00 Uhr
1024.9
00:00 Uhr

1021.2
12:15 Uhr
1022.7
2,400
18:00 Uhr
1,000
0.457
56
123
12:15 Uhr
0.0
00:00 Uhr

00:05:00
3,8
1
30,6
09:25 Uhr

5
6.5
18:15 Uhr
0.8
00:00 Uhr
3.1
09:35 Uhr
0
00:00 Uhr

00:00 Uhr

00:00 Uhr

00:00 Uhr
23
Zeitraffer
08:25
6.3
00:00 Uhr
4.8
07:45 Uhr

93
01:55 Uhr
92
00:00 Uhr
1022.9
00:00 Uhr

1021.8
04:00 Uhr
1022.3
0,000
00:00 Uhr
0,000
0.000
12
16
08:05 Uhr
0.0
00:00 Uhr

00:00:00
1,4
0
12,9
04:50 Uhr

2
5.1
00:00 Uhr
3.8
07:45 Uhr
4.8
07:45 Uhr
0
00:00 Uhr

00:00 Uhr

00:00 Uhr

00:00 Uhr
25
Zeitraffer
08:20
4.4
13:40 Uhr
-4.6
08:05 Uhr

94
09:55 Uhr
80
13:45 Uhr
1022.4
00:00 Uhr

1019.3
15:00 Uhr
1020.5
2,400
10:00 Uhr
0,200
0.330
106
238
12:15 Uhr
0.6
11:30 Uhr

03:45:00
0,7
0
19,3
12:40 Uhr

3
1.4
13:05 Uhr
-5.5
07:45 Uhr
-4.6
08:05 Uhr
0
00:00 Uhr

00:00 Uhr

00:00 Uhr

00:00 Uhr
26
Zeitraffer
08:17
5.5
22:40 Uhr
-1.2
06:05 Uhr

94
08:55 Uhr
90
15:00 Uhr
1020.9
08:45 Uhr

1019.6
14:30 Uhr
1020.3
2,400
16:30 Uhr
0,200
0.127
31
79
09:20 Uhr
0.0
00:00 Uhr

00:00:00
1,4
0
16,1
00:15 Uhr

3
4.3
22:10 Uhr
-2.2
06:40 Uhr
-1.2
06:05 Uhr
0
00:00 Uhr

00:00 Uhr

00:00 Uhr

00:00 Uhr
27
Zeitraffer
08:14
6.7
12:45 Uhr
3.9
23:10 Uhr

94
05:30 Uhr
88
23:55 Uhr
1023.3
22:30 Uhr

1020.5
05:00 Uhr
1021.8
2,400
08:10 Uhr
0,200
0.102
28
86
12:30 Uhr
0.0
00:00 Uhr

00:00:00
0,3
0
6,4
01:50 Uhr

1
5.8
12:45 Uhr
2.1
23:55 Uhr
3.9
23:10 Uhr
0
00:00 Uhr

00:00 Uhr

00:00 Uhr

00:00 Uhr
28
Zeitraffer
08:12
5.6
12:15 Uhr
-1.0
19:25 Uhr

92
23:00 Uhr
76
12:55 Uhr
1026.4
21:15 Uhr

1022.9
05:30 Uhr
1024.5
0,000
00:00 Uhr
0,000
0.178
58
134
11:25 Uhr
0.0
00:00 Uhr

00:00:00
0,4
0
8,0
03:25 Uhr

2
2.8
10:30 Uhr
-3.0
19:05 Uhr
-1.0
19:25 Uhr
0
00:00 Uhr

00:00 Uhr

00:00 Uhr

00:00 Uhr
29
Zeitraffer
08:09
5.1
13:25 Uhr
0.4
03:05 Uhr

94
08:50 Uhr
88
13:30 Uhr
1026.0
00:00 Uhr

1024.3
15:00 Uhr
1025.1
2,400
04:20 Uhr
1,000
0.203
56
123
11:45 Uhr
0.0
00:00 Uhr

00:00:00
1,1
0
17,7
11:25 Uhr

3
3.7
11:40 Uhr
-0.8
03:15 Uhr
0.4
03:05 Uhr
0
00:00 Uhr

00:00 Uhr

00:00 Uhr

00:00 Uhr
30
Zeitraffer
08:07
2.1
00:00 Uhr
-1.3
05:30 Uhr

94
10:15 Uhr
83
23:45 Uhr
1026.0
05:30 Uhr

1017.1
23:45 Uhr
1023.5
0,000
00:00 Uhr
0,000
0.076
26
41
12:15 Uhr
0.0
00:00 Uhr

00:00:00
1,0
0
14,5
23:35 Uhr

3
0.9
00:00 Uhr
-2.5
05:40 Uhr
-1.3
05:30 Uhr
0
00:00 Uhr

00:00 Uhr

00:00 Uhr

00:00 Uhr
Stationsstandorte || Wetterblog || Wissenswertes || Downloads || Seitenhistorie || Partner || Impressum / Datenschutz